Regional Weather Roundup
Issued by NWS Charleston, SC

Current Version | Previous Version | Graphics & Text | Print | Product List | Glossary On
Versions: 1 2 3 4 5 6 7 8 9 10 11 12 13 14 15 16 17 18 19 20 21 22 23 24 25 26 27 28 29 30 31 32 33 34 35 36 37 38 39 40 41 42 43 44 45 46 47 48 49 50
000 ASUS42 KCHS 290126 RWRCHS REGIONAL WEATHER ROUNDUP NATIONAL WEATHER SERVICE CHARLESTON SC 900 PM EDT SAT MAR 28 2015 NOTE: "FAIR" INDICATES FEW OR NO CLOUDS BELOW 12,000 FEET WITH NO SIGNIFICANT WEATHER AND/OR OBSTRUCTIONS TO VISIBILITY. NOT ALL STATIONS ARE QUALITY CONTROLLED BY THE NATIONAL WEATHER SERVICE. USE DATA WITH CAUTION...ESPECIALLY DEWPOINT OBSERVATIONS. SCZ027-030-031-034>040-042>050-290200- ...SOUTHEAST SOUTH CAROLINA... CITY SKY/WX TMP DP RH WIND PRES REMARKS N CHARLESTON CLEAR 46 29 51 N6 30.16R WATERFRONT PRK N/A 54 N/A N/A N6 N/A MOUNT PLEASANT FAIR 45 34 65 CALM 30.17R PINOPOLIS N/A 55 28 35 NW13 30.05R MONCKS CORNER FAIR 52 23 32 N3 30.17R SUMMERVILLE FAIR 45 36 70 CALM 30.18R BEAUFORT MCAS CLEAR 51 28 41 W7 30.16R BEAUFORT ARPT FAIR 52 30 43 W8 30.17R HILTON HEAD IS CLEAR 52 27 37 NW3 30.19R WALTERBORO CLEAR 43 32 65 CALM 30.18R ALLENDALE FAIR 46 28 49 CALM 30.17R ...SOUTHERN MIDLANDS AND PEE DEE... CITY SKY/WX TMP DP RH WIND PRES REMARKS GEORGETOWN NOT AVBL KINGSTREE NOT AVBL ORANGEBURG CLEAR 45 31 58 CALM 30.16R BARNWELL FAIR 43 32 65 CALM 30.18R AIKEN FAIR 37 28 70 CALM 30.19R MANNING FLURRIES 37 23 56 CALM 30.17R COLUMBIA PTCLDY 45 30 55 SW3 30.15R SUMTER CLEAR 43 23 44 W1 30.14R FLORENCE CLEAR 46 25 43 CALM 30.16R MYRTLE BEACH CLEAR 48 28 46 NW6 30.16R N MYRTLE BEACH CLEAR 45 30 55 N3 30.15R $$ GAZ063-065-086>088-099>101-113>116-118-119-134>141-150-290200- ...SOUTHEAST GEORGIA... CITY SKY/WX TMP DP RH WIND PRES REMARKS SAVANNAH ARPT CLEAR 49 30 48 CALM 30.17R HUNTER AAF CLEAR 49 31 49 W2 30.15R FORT STEWART CLEAR 48 33 55 W3 30.16R STATESBORO CLEAR 42 33 72 CALM 30.19R SYLVANIA CLEAR 43 33 68 CALM 30.19R CLAXTON FAIR 45 37 76 CALM 30.18R ...CSRA...CENTRAL AND FAR SOUTHEAST GEORGIA... CITY SKY/WX TMP DP RH WIND PRES REMARKS THOMSON CLEAR 46 30 54 CALM 30.23R AUGUSTA-BUSH CLEAR 46 23 40 W6 30.17R AUGUSTA-DANIEL CLEAR 51 18 27 W3 30.16R SWAINSBORO FAIR 45 21 39 CALM 30.20R VIDALIA CLEAR 48 28 46 NW3 30.19R EASTMAN FAIR 44 29 55 CALM 30.23R HAZLEHURST FAIR 45 36 70 CALM 30.18R ALMA CLEAR 45 35 68 CALM 30.18R WAYCROSS MOCLDY 50 40 69 CALM 30.19R JESUP FAIR 45 37 76 CALM 30.20R BAXLEY FAIR 46 39 76 CALM 30.19R BRUNSWICK CLEAR 46 36 66 CALM 30.21R SAINT SIMONS CLEAR 53 30 41 W5 30.19R $$ SCZ027-028-034-036>038-045-046-048>050-GAZ119-141-290200- ...LAKE AND SUPPLEMENTAL COASTAL OBSERVATIONS... STATION/POSITION TIME TEMP WIND PRES WAVE SWELL AIR SEA DIR/SP/G HT/PER HT/PER/DIR (UTC) (F) (DEG/KT/KT) (MB) (FT/S) (FT/S/D) UPR LAKE MARION NOT AVBL WINYAH BAY 0045 46 310/ 2 1019.0R LAKE MURRAY 0100 47 340/ 2/ 3 1020.7R ACE BASIN NERRS NOT AVBL FORT PULASKI 0000 56 61 290/ 11/ 13 1020.9R SAPELO ISLAND 0100 54 270/ 5 1022.0R $$ ANZ835-935-AMZ111-154-330-350-352-354-370-450-454-472-290200- ...C-MAN AND BUOY OBSERVATIONS... STATION/POSITION TIME TEMP WIND PRES WAVE SWELL AIR SEA DIR/SP/G HT/PER HT/PER/DIR (UTC) (F) (DEG/KT/KT) (MB) (FT/S) (FT/S/D) BUOY 41004 0050 56 68 310/ 14/ 19 1020.1R 4/ 9 2/ 9 BUOY 41008 0050 57 61 300/ 16/ 19 1021.5R 3/ 4 2/ 70/ 8 FOLLY BEACH CMAN 0100 51 330/ 5/ 7 1021.2R CAPERS NEARSHORE NOT AVBL FRIPP NEARSHORE 0000 56 320/ 16/ 17 1019.8R STATION/POSITION TIME TEMP WIND PRES WAVE SWELL AIR SEA DIR/SP/G HT/PER HT/PER/DIR (UTC) (F) (DEG/KT/KT) (MB) (FT/S) (FT/S/D) 5E ST. MARYS GA 0021 61 N/A 2/ 7 FRYING PAN BUOY 0050 54 65 300/ 14/ 17 1020.5R 3/ 9 2/120/ 9 BUOY 41025 NOT AVBL CAPE LOOKOUT NC 0100 45 350/ 17/ 20 1020.8R BUOY 41002 0050 60 68 320/ 19/ 27 1018.4R 10/ 9 BUOY 41010 0020 63 76 310/ 14/ 19 1020.9R ST AUGUSTINE FL 0100 57 61 310/ 6/ 8 1023.3R $$

USA.gov is the U.S. government's official web portal to all federal, state and local government web resources and services.